Flag for U.S.A. Weather past 2 weeks in Inverness, Florida, U.S.A.

Now
79 °F

Fog.


Feels Like: 83 °F
Forecast: 72 / 84 °F
Wind: N/A

Location: The Villages

Current Time: Sep 16, 2014 at 1:27:13 AM

Latest Report: Sep 16, 2014 at 12:55 AM


Visibility: 4 mi

Pressure: 30.05 "Hg

Humidity: 94%

Dew point: 77 °F

Location of InvernessLocation

Historic Weather in Inverness — Graph

°F

Inverness temperature yesterday

Maximum temperature yesterday: 91 °F (at 1:15 PM)
Minimum temperature yesterday: 73 °F (at 7:15 AM)
Average temperature yesterday: 81 °F

Past Weeks' High & Low Weather Summary

 TemperatureHumidityPressure
High91 °F (Sep 14, 2:55 PM)100% (Sep 15, 7:15 AM)30.08 "Hg (Sep 15, 7:15 AM)
Low73 °F (Sep 15, 7:15 AM)46% (Sep 14, 2:55 PM)29.98 "Hg (Sep 14, 4:15 PM)
Average82 °F75%30.03 "Hg
* Reported Sep 14 1:55 PM — Sep 16 12:15 AM, Inverness, Weather by CustomWeather, © 2014

Note: Actual official high and low records may vary slightly from our data, if they occured in-between our weather recording intervals... More about our weather records

Advertising

Inverness weather history for previous 24 hours

 ConditionsComfort  
Time TempWeatherWind HumidityBarometerVisibility
12:15 AM
Sep 16
79 °FFog.N/A89%30.05 "Hg3 mi
11:55 PM
Sep 15
79 °FFog.N/A94%30.05 "Hg3 mi
11:35 PM79 °FFog.N/A94%30.06 "Hg3 mi
11:15 PM79 °FFog.N/A94%30.05 "Hg4 mi
10:55 PM79 °FFog.N/A94%30.05 "Hg4 mi
10:15 PM79 °FFog.N/A89%30.06 "Hg3 mi
9:55 PM79 °FFog.N/A89%30.05 "Hg4 mi
9:15 PM81 °FFog.N/A89%30.03 "Hg4 mi
8:55 PM81 °FHaze.N/A89%30.02 "Hg3 mi
8:35 PM81 °FHaze.N/A84%30.02 "Hg2 mi
8:15 PM81 °FHaze.N/A84%30.01 "Hg3 mi
7:55 PM81 °FHaze.N/A84%30.01 "Hg3 mi
7:15 PM82 °FHaze.N/A79%30.00 "Hg2 mi
6:55 PM82 °FHaze.N/A79%30.00 "Hg3 mi
6:35 PM82 °FHaze.N/A74%30.00 "Hg4 mi
6:15 PM84 °FHaze.N/A66%30.00 "Hg3 mi
5:55 PM84 °FHaze.N/A70%29.99 "Hg2 mi
5:15 PM84 °FHaze.N/A70%30.00 "Hg3 mi
4:55 PM86 °FHaze.N/A70%30.01 "Hg4 mi
4:35 PM84 °FHaze.N/A74%30.01 "Hg3 mi
4:15 PM82 °FHaze.N/A79%30.01 "Hg4 mi
3:55 PM81 °FHaze.N/A84%30.01 "Hg3 mi
3:35 PM82 °FHaze.N/A74%30.02 "Hg2 mi
3:15 PM86 °FHaze.N/A66%30.02 "Hg3 mi
2:55 PM91 °FHaze.N/A52%30.01 "Hg4 mi
2:35 PM91 °FHaze.N/A52%30.02 "Hg4 mi
2:15 PM91 °FHaze.N/A52%30.03 "Hg4 mi
1:55 PM91 °FHaze.N/A52%30.04 "Hg4 mi
1:35 PM91 °FHaze.N/A52%30.04 "Hg3 mi
1:15 PM91 °FHaze.N/A56%30.05 "Hg3 mi
12:55 PM90 °FHaze.N/A55%30.06 "Hg3 mi
12:15 PM90 °FHaze.N/A59%30.07 "Hg2 mi
11:55 AM88 °FHaze.N/A62%30.07 "Hg3 mi
11:35 AM88 °FHaze.N/A62%30.08 "Hg3 mi
11:15 AM86 °FHaze.N/A66%30.08 "Hg4 mi
10:55 AM86 °FHaze.N/A66%30.08 "Hg5 mi
10:15 AM84 °FHaze.N/A70%30.08 "Hg4 mi
9:55 AM82 °FHaze.N/A74%30.08 "Hg6 mi
9:15 AM81 °FHaze.N/A79%30.08 "Hg3 mi
8:55 AM79 °FHaze.N/A84%30.07 "Hg4 mi
8:35 AM79 °FFog.N/A89%30.07 "Hg5 mi
8:15 AM75 °FFog.N/A100%30.07 "Hg4 mi
7:55 AM75 °FFog.N/A100%30.07 "Hg3 mi
7:35 AM73 °FFog.N/A100%30.07 "Hg3 mi
7:15 AM73 °FFog.N/A100%30.06 "Hg4 mi
6:55 AM75 °FFog.N/A94%30.06 "Hg2 mi
6:35 AM75 °FFog.N/A94%30.06 "Hg5 mi
6:15 AM75 °FFog.N/A94%30.05 "Hg4 mi
5:55 AM75 °FFog.N/A94%30.05 "Hg5 mi
5:35 AM75 °FFog.N/A94%30.05 "Hg5 mi
5:15 AM75 °FFog.N/A94%30.05 "Hg4 mi
4:15 AM75 °FMild.N/A94%30.04 "Hg7 mi
3:55 AM75 °FFog.N/A94%30.04 "Hg5 mi
3:35 AM75 °FFog.N/A94%30.04 "Hg4 mi
3:15 AM75 °FFog.N/A94%30.04 "Hg5 mi
2:55 AM75 °FFog.N/A94%30.04 "Hg5 mi
2:35 AM75 °FFog.N/A94%30.04 "Hg4 mi
2:15 AM75 °FMild.N/A94%30.05 "HgN/A
1:55 AM75 °FFog.N/A94%30.05 "Hg4 mi
1:15 AM77 °FFog.N/A89%30.05 "Hg4 mi
Weather by CustomWeather, © 2014

See weather overviewHow to use our weather pages